Location: Bakhuizen
(52.8696°N, 5.4575°E)
Time: 08:31:29
(UTC+00:00)

Meteor 1-10 Rocket - Pass Details

Date: 11 May 2021
Orbit: 837 x 909 km, 81.3° (Epoch: 20 June)

Event Time Altitude Azimuth Distance (km) Brightness Sun altitude
Exits shadow 21:05:33 10° 178° (S) 2,428 6.1 -12.1°
Maximum altitude 21:10:58 64° 98° (E) 942 4.3 -12.5°
Drops below altitude 10° 21:16:37 10° 18° (NNE) 2,519 7.2 -13.0°
Sets 21:19:05 0° 16° (NNE) 3,472 8.0 -13.2°
